Weather in Shevchenkove

Ukraine / Dnipropetrovsk Region     47°53′01″N   34°08′56″E
temp.,
°C
wind,
m/s
gust,
m/s
humid.,
%
clouds,
%
prec.,
mm/h
press.,
hPa
HPBL,
m
28 june, tue
tue2800:00+22ne512655 0.0 1017302
03:00+19ne4107072 0.0 1016193
06:00+18ne41072100 0.0 1017222
09:00+24ne6853100 0.0 1017696
12:00+28ene6736100 0.0 10161528
15:00+30ene6932100 0.0 10151985
18:00+30e6939100 0.0 10142063
21:00+25ne345684 0.0 101546
29 june, wed
wed2900:00+22ne46749 0.5 1016111
03:00+20ne47845 0.5 1016121
06:00+20ne488212 0.0 1016193
09:00+27ene57545 0.0 1016672
12:00+31ene66362 0.0 10162210
15:00+32ene553471 0.0 10152864
18:00+27nne695174 0.0 1015444
21:00+25ene48555 0.0 1015201
30 june, thu
thu3000:00+21e41057100 0.0 1016218
03:00+18n5877100 0.8 1017151
06:00+17ene597672 0.1 1016204
09:00+23ene665232 0.2 1016533
12:00+26e544249 0.0 10161171
15:00+23e574530 0.0 1017535
18:00+26e56426 0.0 10161818
21:00+21ene46560 0.0 101784
1 july, fri
fri100:00+19ne34550 0.0 101845
03:00+16ene47632 0.0 1018116
06:00+16ne48650 0.0 1019168
09:00+23ne56480 0.0 1019810
12:00+26ne56350 0.0 10191895
15:00+28ne56310 0.0 10182327
18:00+27ne66313 0.0 10182439
21:00+21ene45500 0.0 101966
2 july, sat
sat200:00+19ne48560 0.0 1020128
03:00+17ene48650 0.0 1021122
06:00+17ne47671 0.0 1021130
09:00+23ne564514 0.0 1021707
12:00+27ene563397 0.0 10211954
15:00+28ene55295 0.0 10192161
18:00+28ene45312 0.0 10192365
21:00+22ene33480 0.0 101919